Location: Newark
(40.8000°N, 14.5000°E)
Time: 19:29:44
(UTC+00:00)

Starlink (trailer) - Visible Passes

Search period start: 16 July 2019 00:00
Search period end: 26 July 2019 00:00
Orbit: 548 x 552 km, 53.0° (Epoch: 16 July)

Date Brightness Start Highest point End Pass type
(mag) Time Alt. Az. Time Alt. Az. Time Alt. Az.
16 Jul 4.0 01:11:46 47° SE 01:11:52 47° SE 01:15:51 10° ENE visible
16 Jul 5.0 02:47:49 10° W 02:51:34 32° NNW 02:55:19 10° NE visible
17 Jul 3.6 01:06:23 65° SE 01:06:23 65° SE 01:10:30 10° NE visible
17 Jul 5.3 02:42:41 10° W 02:46:15 27° NNW 02:49:49 10° NE visible
18 Jul 3.5 01:00:58 88° E 01:00:58 88° E 01:05:05 10° NE visible
18 Jul 5.6 02:37:36 10° WNW 02:40:57 23° NNW 02:44:19 10° NNE visible
19 Jul 3.7 00:55:29 69° NW 00:55:30 69° NW 00:59:38 10° NE visible
19 Jul 5.8 02:32:33 10° WNW 02:35:41 20° NNW 02:38:49 10° NNE visible
20 Jul 4.1 00:49:58 52° NW 00:50:06 53° NNW 00:54:10 10° NE visible
20 Jul 6.0 02:27:31 10° WNW 02:30:25 18° NNW 02:33:20 10° NNE visible
20 Jul 6.4 23:08:47 11° ENE 23:08:47 11° ENE 23:08:56 10° ENE visible
21 Jul 4.5 00:44:24 40° NW 00:44:43 41° NNW 00:48:40 10° NE visible
21 Jul 6.2 02:22:27 10° NW 02:25:11 17° N 02:27:54 10° NNE visible
21 Jul 6.3 23:03:10 13° ENE 23:03:10 13° ENE 23:03:39 10° ENE visible
22 Jul 5.0 00:38:48 32° NW 00:39:22 33° NNW 00:43:09 10° NE visible
22 Jul 6.3 02:17:23 10° NW 02:19:57 16° N 02:22:32 10° NNE visible
22 Jul 6.1 22:57:31 15° ENE 22:57:31 15° ENE 22:58:18 10° ENE visible
23 Jul 5.3 00:33:08 25° NW 00:34:01 28° NNW 00:37:38 10° NE visible
23 Jul 6.3 02:12:15 10° NW 02:14:44 15° N 02:17:12 10° NNE visible
23 Jul 6.0 22:51:48 18° NE 22:51:48 18° NE 22:52:53 10° NE visible
24 Jul 5.7 00:27:25 20° NW 00:28:43 24° NNW 00:32:07 10° NNE visible
24 Jul 6.4 02:07:03 10° NW 02:09:30 15° N 02:11:56 10° NE visible
24 Jul 5.8 22:46:01 21° NE 22:46:01 21° NE 22:47:26 10° NE visible
25 Jul 6.0 00:21:38 16° NW 00:23:26 21° NNW 00:26:36 10° NNE visible
25 Jul 6.4 02:01:48 10° NNW 02:04:16 15° N 02:06:45 10° NE visible
25 Jul 5.6 22:40:08 24° NE 22:40:08 24° NE 22:41:57 10° NE visible
